ACA1118 CYQR-CYUL

Flight info

Callsign ACA1118
Flight time N/A
Altitude 35000
Route DCT OTRAN DCT YRL DCT YGQ DCT YTS DCT BEMOG LFLER7
Aircraft A21N/M-SDE2E3FGHIRWXY/LB1

Departure

Time N/A
Airport Regina International Airport (CYQR)

Arrival

Time 2026-05-03 21:42
Airport Montreal / Pierre Elliott Trudeau International Airport (CYUL)
Time Latitude Longitude Altitude Speed Heading
2026-05-03 20:15 49.75227 -86.89550 36603 ft 485 kts 105°
2026-05-03 20:15 49.73417 -86.79566 36610 ft 485 kts 105°
2026-05-03 20:16 49.71588 -86.69518 36602 ft 485 kts 105°
2026-05-03 20:16 49.69723 -86.59499 36603 ft 485 kts 105°
2026-05-03 20:17 49.67833 -86.49476 36599 ft 486 kts 105°
2026-05-03 20:17 49.65930 -86.39463 36608 ft 486 kts 105°
2026-05-03 20:18 49.64019 -86.29451 36603 ft 487 kts 106°
2026-05-03 20:18 49.62110 -86.19498 36606 ft 487 kts 106°
2026-05-03 20:19 49.60181 -86.09492 36605 ft 487 kts 106°
2026-05-03 20:19 49.58241 -85.99483 36603 ft 487 kts 106°
2026-05-03 20:20 49.56294 -85.89486 36603 ft 486 kts 106°
2026-05-03 20:20 49.54340 -85.79508 36605 ft 486 kts 107°
2026-05-03 20:21 49.52380 -85.69550 36611 ft 486 kts 107°
2026-05-03 20:21 49.50410 -85.59597 36609 ft 486 kts 107°
2026-05-03 20:22 49.48433 -85.49657 36616 ft 486 kts 107°
2026-05-03 20:22 49.46462 -85.39796 36615 ft 485 kts 107°
2026-05-03 20:23 49.44470 -85.29882 36609 ft 485 kts 107°
2026-05-03 20:23 49.42470 -85.19978 36602 ft 485 kts 107°
2026-05-03 20:24 49.40459 -85.10070 36618 ft 486 kts 107°
2026-05-03 20:24 49.38437 -85.00157 36626 ft 487 kts 107°
2026-05-03 20:25 49.36406 -84.90246 36624 ft 487 kts 107°
2026-05-03 20:25 49.34364 -84.80337 36632 ft 487 kts 107°
2026-05-03 20:26 49.32315 -84.70438 36625 ft 487 kts 107°
2026-05-03 20:26 49.30256 -84.60546 36641 ft 486 kts 108°
2026-05-03 20:27 49.28194 -84.50685 36635 ft 486 kts 108°
2026-05-03 20:27 49.26125 -84.40835 36639 ft 486 kts 108°
2026-05-03 20:28 49.24045 -84.30984 36645 ft 486 kts 108°
2026-05-03 20:28 49.21959 -84.21156 36651 ft 486 kts 108°
2026-05-03 20:29 49.19867 -84.11345 36647 ft 485 kts 108°
2026-05-03 20:29 49.17786 -84.01630 36650 ft 484 kts 108°
2026-05-03 20:30 49.15680 -83.91844 36653 ft 484 kts 108°
2026-05-03 20:30 49.13566 -83.82073 36641 ft 485 kts 108°
2026-05-03 20:31 49.11442 -83.72298 36658 ft 485 kts 109°
2026-05-03 20:31 49.09310 -83.62532 36657 ft 485 kts 109°
2026-05-03 20:32 49.07169 -83.52776 36663 ft 485 kts 109°
2026-05-03 20:32 49.05021 -83.43031 36664 ft 485 kts 109°
2026-05-03 20:33 49.02866 -83.33297 36664 ft 484 kts 109°
2026-05-03 20:33 49.00702 -83.23572 36673 ft 484 kts 109°
2026-05-03 20:34 48.98545 -83.13920 36669 ft 484 kts 109°
2026-05-03 20:34 48.96369 -83.04228 36673 ft 484 kts 109°
2026-05-03 20:35 48.94183 -82.94538 36678 ft 484 kts 110°
2026-05-03 20:35 48.91990 -82.84857 36678 ft 483 kts 110°
2026-05-03 20:36 48.89789 -82.75189 36672 ft 483 kts 110°
2026-05-03 20:36 48.87583 -82.65545 36673 ft 483 kts 110°
2026-05-03 20:37 48.85384 -82.55973 36671 ft 483 kts 110°
2026-05-03 20:37 48.83162 -82.46343 36677 ft 482 kts 110°
2026-05-03 20:38 48.81312 -82.38356 36683 ft 483 kts 110°
2026-05-03 20:38 48.79076 -82.28749 36682 ft 483 kts 110°
2026-05-03 20:39 48.76828 -82.19126 36681 ft 483 kts 110°
2026-05-03 20:39 48.74575 -82.09527 36684 ft 483 kts 110°
2026-05-03 20:40 48.72318 -81.99955 36688 ft 482 kts 111°
2026-05-03 20:40 48.70054 -81.90392 36684 ft 482 kts 111°
2026-05-03 20:41 48.67795 -81.80895 36685 ft 482 kts 111°
2026-05-03 20:41 48.65539 -81.71451 36689 ft 482 kts 111°
2026-05-03 20:42 48.63253 -81.61923 36697 ft 481 kts 111°
2026-05-03 20:42 48.60962 -81.52417 36648 ft 481 kts 111°
2026-05-03 20:43 48.58664 -81.42919 36643 ft 481 kts 111°
2026-05-03 20:43 48.55935 -81.33739 36644 ft 479 kts 120°
2026-05-03 20:44 48.52696 -81.24962 36650 ft 478 kts 121°
2026-05-03 20:44 48.49435 -81.16283 36704 ft 478 kts 121°
2026-05-03 20:45 48.46144 -81.07573 36702 ft 478 kts 121°
2026-05-03 20:45 48.42846 -80.98874 36701 ft 478 kts 121°
2026-05-03 20:46 48.39541 -80.90187 36707 ft 478 kts 121°
2026-05-03 20:46 48.36225 -80.81499 36711 ft 478 kts 121°
2026-05-03 20:47 48.32906 -80.72833 36703 ft 478 kts 121°
2026-05-03 20:47 48.29606 -80.64243 36705 ft 478 kts 122°
2026-05-03 20:48 48.26267 -80.55581 36695 ft 478 kts 122°
2026-05-03 20:48 48.22926 -80.46941 36708 ft 478 kts 122°
2026-05-03 20:49 48.19576 -80.38307 36701 ft 478 kts 122°
2026-05-03 20:49 48.16246 -80.29751 36704 ft 478 kts 122°
2026-05-03 20:50 48.12881 -80.21133 36710 ft 478 kts 122°
2026-05-03 20:50 48.09515 -80.12540 36707 ft 478 kts 122°
2026-05-03 20:51 48.06149 -80.03975 36708 ft 478 kts 122°
2026-05-03 20:51 48.02776 -79.95421 36706 ft 477 kts 122°
2026-05-03 20:52 47.99394 -79.86868 36719 ft 477 kts 122°
2026-05-03 20:52 47.96028 -79.78384 36719 ft 478 kts 122°
2026-05-03 20:53 47.92630 -79.69849 36737 ft 478 kts 122°
2026-05-03 20:53 47.89226 -79.61322 36752 ft 478 kts 122°
2026-05-03 20:54 47.85817 -79.52812 36751 ft 478 kts 122°
2026-05-03 20:54 47.80692 -79.40068 36753 ft 478 kts 122°
2026-05-03 20:55 47.77267 -79.31584 36760 ft 478 kts 122°
2026-05-03 20:55 47.73859 -79.23168 36760 ft 478 kts 123°
2026-05-03 20:56 47.70424 -79.14714 36762 ft 478 kts 123°
2026-05-03 20:56 47.66980 -79.06261 36768 ft 478 kts 123°
2026-05-03 20:57 47.63531 -78.97825 36765 ft 478 kts 123°
2026-05-03 20:57 47.60077 -78.89401 36766 ft 478 kts 123°
2026-05-03 20:58 47.56616 -78.80989 36771 ft 478 kts 123°
2026-05-03 20:58 47.53146 -78.72578 36771 ft 478 kts 123°
2026-05-03 20:59 47.49670 -78.64180 36763 ft 478 kts 123°
2026-05-03 20:59 47.46218 -78.55866 36773 ft 477 kts 123°
2026-05-03 21:00 47.43300 -78.48858 36769 ft 477 kts 123°
2026-05-03 21:00 47.39246 -78.39150 36780 ft 478 kts 123°
2026-05-03 21:01 47.35750 -78.30806 36777 ft 478 kts 123°
2026-05-03 21:01 47.32270 -78.22525 36782 ft 477 kts 123°
2026-05-03 21:02 47.28767 -78.14215 36779 ft 477 kts 123°
2026-05-03 21:02 47.25276 -78.05961 36786 ft 477 kts 123°
2026-05-03 21:03 47.21740 -77.97623 36785 ft 477 kts 123°
2026-05-03 21:03 47.18218 -77.89344 36785 ft 477 kts 123°
2026-05-03 21:04 47.14700 -77.81098 36775 ft 477 kts 123°
2026-05-03 21:04 47.11168 -77.72846 36787 ft 477 kts 124°
2026-05-03 21:05 47.07632 -77.64607 36788 ft 477 kts 124°
2026-05-03 21:05 47.04093 -77.56388 36786 ft 477 kts 124°
2026-05-03 21:06 47.00567 -77.48223 36788 ft 476 kts 124°
2026-05-03 21:06 46.97011 -77.40013 36787 ft 476 kts 124°
2026-05-03 21:07 46.93453 -77.31824 36785 ft 476 kts 124°
2026-05-03 21:07 46.89896 -77.23659 36782 ft 476 kts 124°
2026-05-03 21:08 46.86354 -77.15554 36778 ft 476 kts 124°
2026-05-03 21:08 46.82783 -77.07406 36786 ft 476 kts 124°
2026-05-03 21:09 46.79201 -76.99258 36783 ft 476 kts 124°
2026-05-03 21:09 46.75662 -76.91226 36777 ft 464 kts 124°
2026-05-03 21:10 46.72187 -76.83367 36786 ft 460 kts 124°
2026-05-03 21:10 46.68717 -76.75543 36784 ft 460 kts 124°
2026-05-03 21:11 46.65240 -76.67724 36807 ft 460 kts 124°
2026-05-03 21:11 46.61765 -76.59929 36786 ft 459 kts 124°
2026-05-03 21:12 46.58281 -76.52137 36774 ft 459 kts 125°
2026-05-03 21:12 46.54792 -76.44357 36786 ft 459 kts 125°
2026-05-03 21:13 46.51301 -76.36594 36785 ft 459 kts 125°
2026-05-03 21:13 46.47798 -76.28824 36785 ft 459 kts 125°
2026-05-03 21:14 46.44315 -76.21120 36789 ft 459 kts 125°
2026-05-03 21:14 46.40803 -76.13374 36785 ft 459 kts 125°
2026-05-03 21:15 46.37285 -76.05636 36792 ft 459 kts 125°
2026-05-03 21:15 46.33768 -75.97924 36792 ft 459 kts 125°
2026-05-03 21:16 46.30269 -75.90271 36784 ft 459 kts 125°
2026-05-03 21:16 46.26742 -75.82577 36711 ft 457 kts 126°
2026-05-03 21:17 46.24988 -75.78758 36104 ft 456 kts 126°
2026-05-03 21:17 46.23799 -75.76172 35591 ft 458 kts 126°
2026-05-03 21:17 46.21450 -75.71073 34572 ft 462 kts 126°
2026-05-03 21:17 46.19664 -75.67203 33861 ft 464 kts 126°
2026-05-03 21:18 46.17871 -75.63320 33019 ft 465 kts 125°
2026-05-03 21:18 46.16173 -75.59351 32148 ft 468 kts 117°
2026-05-03 21:18 46.14985 -75.54970 31266 ft 470 kts 103°
2026-05-03 21:18 46.14385 -75.50347 30460 ft 469 kts 97°
2026-05-03 21:19 46.13947 -75.45691 29694 ft 468 kts 95°
2026-05-03 21:19 46.13532 -75.41058 28921 ft 464 kts 95°
2026-05-03 21:19 46.13116 -75.36474 28237 ft 459 kts 95°
2026-05-03 21:19 46.12697 -75.31936 27547 ft 455 kts 95°
2026-05-03 21:20 46.12277 -75.27442 26869 ft 451 kts 95°
2026-05-03 21:20 46.11856 -75.22985 26196 ft 447 kts 95°
2026-05-03 21:20 46.11436 -75.18569 25565 ft 443 kts 95°
2026-05-03 21:20 46.11017 -75.14191 25054 ft 439 kts 95°
2026-05-03 21:21 46.10599 -75.09842 24841 ft 438 kts 95°
2026-05-03 21:21 46.10176 -75.05485 24814 ft 438 kts 95°
2026-05-03 21:21 46.09759 -75.01204 24819 ft 437 kts 95°
2026-05-03 21:21 46.09335 -74.96866 24794 ft 436 kts 95°
2026-05-03 21:22 46.08913 -74.92574 24290 ft 431 kts 95°
2026-05-03 21:22 46.08491 -74.88312 23499 ft 427 kts 95°
2026-05-03 21:22 46.08073 -74.84094 22488 ft 424 kts 95°
2026-05-03 21:22 46.07658 -74.79911 21652 ft 419 kts 96°
2026-05-03 21:23 46.07245 -74.75774 20861 ft 414 kts 96°
2026-05-03 21:23 46.06837 -74.71708 20118 ft 408 kts 96°
2026-05-03 21:23 46.06434 -74.67698 19384 ft 402 kts 96°
2026-05-03 21:23 46.06034 -74.63739 18635 ft 397 kts 96°
2026-05-03 21:24 46.05639 -74.59835 17869 ft 392 kts 97°
2026-05-03 21:24 46.05244 -74.55963 17033 ft 388 kts 97°
2026-05-03 21:24 46.04623 -74.52202 16229 ft 385 kts 109°
2026-05-03 21:24 46.03414 -74.48853 15445 ft 381 kts 127°
2026-05-03 21:25 46.01621 -74.46094 14666 ft 375 kts 140°
2026-05-03 21:25 45.99631 -74.43698 13972 ft 372 kts 142°
2026-05-03 21:25 45.97623 -74.41383 13371 ft 368 kts 142°
2026-05-03 21:25 45.95632 -74.39089 12753 ft 364 kts 142°
2026-05-03 21:26 45.93676 -74.36826 12170 ft 359 kts 142°
2026-05-03 21:26 45.92396 -74.35341 11792 ft 355 kts 142°
2026-05-03 21:26 45.90485 -74.33123 11245 ft 351 kts 142°
2026-05-03 21:26 45.88600 -74.30931 10695 ft 346 kts 142°
2026-05-03 21:27 45.86737 -74.28765 10119 ft 343 kts 143°
2026-05-03 21:27 45.84892 -74.26621 9694 ft 340 kts 143°
2026-05-03 21:27 45.83057 -74.24490 9297 ft 338 kts 143°
2026-05-03 21:27 45.81228 -74.22367 9015 ft 337 kts 143°
2026-05-03 21:28 45.79429 -74.20280 8733 ft 325 kts 143°
2026-05-03 21:28 45.77732 -74.18309 8437 ft 302 kts 143°
2026-05-03 21:28 45.76133 -74.16420 8176 ft 296 kts 140°
2026-05-03 21:28 45.74822 -74.14171 7971 ft 294 kts 124°
2026-05-03 21:29 45.73784 -74.11639 7798 ft 294 kts 120°
2026-05-03 21:29 45.72804 -74.09065 7570 ft 294 kts 119°
2026-05-03 21:29 45.71848 -74.06532 7311 ft 293 kts 119°
2026-05-03 21:29 45.70877 -74.03973 7041 ft 292 kts 119°
2026-05-03 21:30 45.69909 -74.01434 6769 ft 290 kts 120°
2026-05-03 21:30 45.68940 -73.98903 6510 ft 289 kts 120°
2026-05-03 21:30 45.67974 -73.96386 6166 ft 288 kts 120°
2026-05-03 21:30 45.67008 -73.93871 5806 ft 286 kts 120°
2026-05-03 21:31 45.66061 -73.91412 5423 ft 280 kts 120°
2026-05-03 21:31 45.65132 -73.89000 5053 ft 274 kts 120°
2026-05-03 21:31 45.64219 -73.86632 4686 ft 269 kts 120°
2026-05-03 21:31 45.63320 -73.84305 4336 ft 264 kts 120°
2026-05-03 21:32 45.62447 -73.82046 4120 ft 254 kts 120°
2026-05-03 21:32 45.61612 -73.79886 3962 ft 242 kts 120°
2026-05-03 21:32 45.60870 -73.77799 3800 ft 235 kts 111°
2026-05-03 21:32 45.60588 -73.75518 3615 ft 234 kts 85°
2026-05-03 21:33 45.61044 -73.73330 3431 ft 230 kts 56°
2026-05-03 21:33 45.62043 -73.71619 3258 ft 227 kts 41°
2026-05-03 21:33 45.63199 -73.70089 3080 ft 226 kts 38°
2026-05-03 21:33 45.64373 -73.68589 3004 ft 226 kts 38°
2026-05-03 21:34 45.65546 -73.67083 3003 ft 226 kts 38°
2026-05-03 21:34 45.66708 -73.65575 2997 ft 224 kts 39°
2026-05-03 21:34 45.67801 -73.64138 3000 ft 203 kts 38°
2026-05-03 21:34 45.68821 -73.62796 2996 ft 197 kts 39°
2026-05-03 21:35 45.69657 -73.61241 2989 ft 202 kts 67°
2026-05-03 21:35 45.69727 -73.59263 2997 ft 202 kts 107°
2026-05-03 21:35 45.69140 -73.57453 3000 ft 201 kts 123°
2026-05-03 21:35 45.68394 -73.55765 2996 ft 201 kts 126°
2026-05-03 21:36 45.67623 -73.54092 2991 ft 201 kts 126°
2026-05-03 21:36 45.66798 -73.52491 2982 ft 199 kts 140°
2026-05-03 21:36 45.65601 -73.51802 2983 ft 186 kts 188°
2026-05-03 21:36 45.64460 -73.52461 2999 ft 175 kts 220°
2026-05-03 21:37 45.63531 -73.53586 2992 ft 175 kts 227°
2026-05-03 21:37 45.62638 -73.54773 2987 ft 175 kts 227°
2026-05-03 21:37 45.61738 -73.55964 2989 ft 176 kts 227°
2026-05-03 21:37 45.60835 -73.57154 2989 ft 177 kts 226°
2026-05-03 21:38 45.59924 -73.58350 2991 ft 177 kts 226°
2026-05-03 21:38 45.59014 -73.59543 2986 ft 178 kts 227°
2026-05-03 21:38 45.58108 -73.60734 2830 ft 176 kts 226°
2026-05-03 21:38 45.57218 -73.61907 2569 ft 176 kts 227°
2026-05-03 21:39 45.56305 -73.63109 2310 ft 175 kts 226°
2026-05-03 21:39 45.55447 -73.64235 2063 ft 162 kts 226°
2026-05-03 21:39 45.54640 -73.65297 1870 ft 154 kts 227°
2026-05-03 21:39 45.53858 -73.66328 1653 ft 152 kts 227°
2026-05-03 21:40 45.53080 -73.67353 1435 ft 153 kts 227°
2026-05-03 21:40 45.52302 -73.68375 1214 ft 151 kts 226°
2026-05-03 21:40 45.51530 -73.69388 1001 ft 148 kts 226°
2026-05-03 21:40 45.50806 -73.70338 801 ft 135 kts 226°
2026-05-03 21:41 45.50137 -73.71208 616 ft 126 kts 226°
2026-05-03 21:41 45.49508 -73.72030 509 ft 121 kts 229°
2026-05-03 21:41 45.48895 -73.72843 350 ft 120 kts 229°
2026-05-03 21:41 45.48285 -73.73640 168 ft 117 kts 227°
2026-05-03 21:42 45.47749 -73.74372 116 ft 85 kts 221°
2026-05-03 21:42 45.47420 -73.74795 114 ft 53 kts 217°
2026-05-03 21:42 45.47181 -73.75096 115 ft 42 kts 223°
2026-05-03 21:42 45.46977 -73.75368 112 ft 39 kts 223°
2026-05-03 21:43 45.46767 -73.75572 114 ft 34 kts 198°
2026-05-03 21:43 45.46564 -73.75646 113 ft 18 kts 192°
2026-05-03 21:43 45.46493 -73.75667 114 ft 10 kts 192°
2026-05-03 21:43 45.46415 -73.75691 112 ft 14 kts 192°
2026-05-03 21:44 45.46346 -73.75711 110 ft 11 kts 192°
2026-05-03 21:44 45.46260 -73.75728 109 ft 13 kts 179°
2026-05-03 21:44 45.46181 -73.75726 109 ft 8 kts 179°
2026-05-03 21:44 45.46173 -73.75726 109 ft 0 kts 179°
2026-05-03 21:45 45.46144 -73.75726 108 ft 11 kts 179°
2026-05-03 21:46 45.46065 -73.75703 107 ft 12 kts 121°
2026-05-03 21:46 45.46061 -73.75587 108 ft 12 kts 86°
2026-05-03 21:46 45.46065 -73.75471 109 ft 11 kts 88°
2026-05-03 21:46 45.46051 -73.75429 109 ft 1 kts 186°
2026-05-03 21:47 45.46021 -73.75447 110 ft 8 kts 200°
2026-05-03 21:47 45.45984 -73.75464 109 ft 1 kts 197°
2026-05-03 21:47 45.45980 -73.75465 110 ft 0 kts 197°